Weather History for KCAD - November, 2012

Change the Weather History Date:

Friday, November 30, 2012

  Actual Average Record
Temperature  
Mean Temperature 30 °F -  
Max Temperature 32 °F 35 °F 62 °F (1998)
Min Temperature 29 °F 22 °F -3 °F (1952)
Degree Days  
Heating Degree Days 34    
Moisture  
Dew Point 29 °F    
Average Humidity 89    
Maximum Humidity 94    
Minimum Humidity 85    
Precipitation  
Precipitation 0.00 in - - ()
Sea Level Pressure  
Sea Level Pressure 30.20 in    
Wind  
Wind Speed 12 mph (East)    
Max Wind Speed 17 mph    
Max Gust Speed 24 mph    
Visibility 7 miles    
Events Fog    
Averages and records for this station are not official NWS values.
T = Trace of Precipitation, MM = Missing Value Source: NWS Daily Summary

Daily Weather History Graph

Daily Weather History Graph

Search for Another Location

Airport or City:

Trip Planner

Search our weather history database for the weather conditions in past years. The results will help you decide how hot, cold, wet, or windy it might be!

Date:

Astronomy

Nov. 30, 2012 Rise Set
Actual Time 7:56 AM EST 5:04 PM EST
Civil Twilight 7:24 AM EST 5:36 PM EST
Nautical Twilight 6:48 AM EST 6:12 PM EST
Astronomical Twilight 6:13 AM EST 6:47 PM EST
Moon 6:58 PM EST (11/30) 9:27 AM EST (11/30)
Length of Visible Light 10h 12m
Length of Day
9h 07m
Waning Gibbous, 96% of the Moon is Illuminated
Nov 30
Waning Gibbous
Dec 6
Last Quarter
Dec 13
New
Dec 20
First Quarter
Dec 28
Full

Hourly Weather History & Observations

Time (EST) Temp. Windchill Dew Point Humidity Pressure Visibility Wind Dir Wind Speed Gust Speed Precip Events Conditions
12:15 AM 32.4 °F 24.6 °F 28.8 °F 87% 30.18 in 10.0 mi East 9.2 mph - N/A   Overcast
12:35 AM 32.4 °F 24.0 °F 28.9 °F 87% 30.18 in 10.0 mi East 10.4 mph - N/A   Overcast
12:55 AM 32.0 °F 24.2 °F 28.4 °F 87% 30.18 in 10.0 mi East 9.2 mph - N/A   Overcast
1:15 AM 31.5 °F 22.9 °F 27.9 °F 87% 30.18 in 10.0 mi East 10.4 mph 18.4 mph N/A   Overcast
1:36 AM 31.5 °F 24.2 °F 28.2 °F 88% 30.19 in 10.0 mi East 8.1 mph - N/A   Overcast
1:55 AM 31.5 °F 22.3 °F 28.2 °F 88% 30.19 in 10.0 mi East 11.5 mph 18.4 mph N/A   Overcast
2:15 AM 31.5 °F 22.9 °F 28.2 °F 88% 30.19 in 10.0 mi East 10.4 mph 16.1 mph N/A   Overcast
2:36 AM 31.5 °F 22.9 °F 28.4 °F 88% 30.20 in 10.0 mi East 10.4 mph - N/A   Overcast
2:55 AM 31.5 °F 20.5 °F 28.4 °F 88% 30.19 in 10.0 mi East 16.1 mph - N/A   Overcast
3:15 AM 31.5 °F 21.4 °F 28.4 °F 88% 30.19 in 10.0 mi East 13.8 mph 17.3 mph N/A   Overcast
3:36 AM 31.5 °F 21.8 °F 28.4 °F 88% 30.19 in 10.0 mi East 12.7 mph 17.3 mph N/A   Overcast
3:55 AM 31.5 °F 21.4 °F 28.4 °F 88% 30.19 in 10.0 mi East 13.8 mph - N/A   Overcast
4:15 AM 31.5 °F 21.8 °F 28.8 °F 90% 30.18 in 7.0 mi East 12.7 mph 21.9 mph N/A   Overcast
4:36 AM 31.5 °F 22.9 °F 28.8 °F 90% 30.18 in 7.0 mi East 10.4 mph - N/A   Overcast
4:55 AM 31.5 °F 21.8 °F 28.8 °F 90% 30.18 in 7.0 mi East 12.7 mph - N/A   Overcast
5:15 AM 31.5 °F 20.1 °F 28.9 °F 90% 30.18 in 7.0 mi East 17.3 mph 20.7 mph N/A   Overcast
5:36 AM 31.5 °F 21.4 °F 28.9 °F 90% 30.18 in 7.0 mi East 13.8 mph - N/A   Overcast
5:55 AM 31.5 °F 22.3 °F 28.9 °F 90% 30.18 in 7.0 mi East 11.5 mph 21.9 mph N/A   Overcast
6:15 AM 31.5 °F 21.8 °F 28.9 °F 90% 30.18 in 10.0 mi East 12.7 mph 19.6 mph N/A   Overcast
6:36 AM 31.5 °F 21.4 °F 28.9 °F 90% 30.18 in 10.0 mi East 13.8 mph 20.7 mph N/A   Overcast
6:55 AM 31.5 °F 20.9 °F 28.9 °F 90% 30.19 in 10.0 mi East 15.0 mph 21.9 mph N/A   Overcast
7:15 AM 30.6 °F 19.8 °F 28.0 °F 90% 30.19 in 7.0 mi East 15.0 mph - N/A   Overcast
7:35 AM 30.7 °F 21.4 °F 28.2 °F 90% 30.20 in 10.0 mi East 11.5 mph 19.6 mph N/A   Overcast
7:55 AM 29.1 °F 17.9 °F 26.4 °F 90% 30.19 in 10.0 mi East 15.0 mph 21.9 mph N/A   Overcast
8:15 AM 29.5 °F 18.8 °F 26.8 °F 90% 30.20 in 10.0 mi East 13.8 mph 19.6 mph N/A   Overcast
8:35 AM 29.3 °F 17.3 °F 26.4 °F 89% 30.19 in 10.0 mi East 17.3 mph 24.2 mph N/A   Overcast
8:55 AM 29.3 °F 18.6 °F 26.1 °F 88% 30.20 in 10.0 mi East 13.8 mph 21.9 mph N/A   Overcast
9:15 AM 30.6 °F 19.8 °F 27.1 °F 87% 30.20 in 10.0 mi East 15.0 mph - N/A   Overcast
9:35 AM 31.1 °F 21.9 °F 27.5 °F 87% 30.21 in 10.0 mi East 11.5 mph 17.3 mph N/A   Overcast
9:55 AM 31.5 °F 21.8 °F 27.5 °F 85% 30.22 in 10.0 mi East 12.7 mph 24.2 mph N/A   Overcast
10:15 AM 31.5 °F 21.8 °F 27.5 °F 85% 30.22 in 10.0 mi East 12.7 mph 18.4 mph N/A   Overcast
10:35 AM 31.5 °F 22.9 °F 27.5 °F 85% 30.23 in 10.0 mi East 10.4 mph - N/A   Overcast
10:55 AM 31.5 °F 22.3 °F 27.5 °F 85% 30.23 in 10.0 mi East 11.5 mph - N/A   Overcast
11:15 AM 31.5 °F 22.9 °F 27.5 °F 85% 30.22 in 10.0 mi East 10.4 mph - N/A   Overcast
11:35 AM 31.5 °F 22.3 °F 27.5 °F 85% 30.21 in 10.0 mi East 11.5 mph 18.4 mph N/A   Overcast
11:55 AM 31.5 °F 21.8 °F 27.5 °F 85% 30.21 in 10.0 mi East 12.7 mph 16.1 mph N/A   Overcast
12:15 PM 31.5 °F 21.8 °F 27.5 °F 85% 30.20 in 10.0 mi ENE 12.7 mph 20.7 mph N/A   Overcast
12:35 PM 31.5 °F 22.3 °F 27.5 °F 85% 30.20 in 10.0 mi ENE 11.5 mph - N/A   Overcast
12:55 PM 31.5 °F 22.9 °F 27.5 °F 85% 30.19 in 10.0 mi East 10.4 mph 18.4 mph N/A   Overcast
1:15 PM 31.5 °F 20.9 °F 27.5 °F 85% 30.19 in 10.0 mi ENE 15.0 mph - N/A   Overcast
1:35 PM 31.5 °F 21.4 °F 27.9 °F 87% 30.19 in 10.0 mi ENE 13.8 mph 18.4 mph N/A   Overcast
1:55 PM 31.5 °F 20.1 °F 28.0 °F 87% 30.18 in 10.0 mi East 17.3 mph 20.7 mph N/A   Overcast
2:16 PM 31.5 °F 20.1 °F 28.2 °F 88% 30.17 in 10.0 mi East 17.3 mph 21.9 mph N/A   Overcast
2:35 PM 31.5 °F 20.9 °F 28.2 °F 88% 30.18 in 10.0 mi East 15.0 mph - N/A   Overcast
2:55 PM 31.5 °F 21.8 °F 28.2 °F 88% 30.18 in 10.0 mi East 12.7 mph 18.4 mph N/A   Overcast
3:16 PM 31.5 °F 21.4 °F 28.2 °F 88% 30.18 in 10.0 mi ENE 13.8 mph 18.4 mph N/A   Overcast
3:35 PM 31.5 °F 21.4 °F 28.2 °F 88% 30.18 in 10.0 mi East 13.8 mph - N/A   Overcast
3:55 PM 31.5 °F 22.3 °F 28.2 °F 88% 30.19 in 10.0 mi ENE 11.5 mph 18.4 mph N/A   Overcast
4:15 PM 31.5 °F 21.8 °F 28.4 °F 88% 30.18 in 10.0 mi East 12.7 mph - N/A   Overcast
4:35 PM 31.5 °F 22.3 °F 28.4 °F 88% 30.19 in 10.0 mi East 11.5 mph - N/A   Overcast
4:55 PM 31.5 °F 22.9 °F 28.4 °F 88% 30.21 in 5.0 mi East 10.4 mph - N/A   Overcast
5:15 PM 31.5 °F 22.3 °F 28.8 °F 90% 30.20 in 5.0 mi East 11.5 mph - N/A   Overcast
5:35 PM 31.5 °F 24.2 °F 28.9 °F 90% 30.21 in 3.0 mi ENE 8.1 mph - N/A   Overcast
5:55 PM 31.5 °F 24.9 °F 28.9 °F 90% 30.21 in 2.5 mi East 6.9 mph - N/A   Overcast
6:15 PM 31.5 °F 22.9 °F 29.1 °F 91% 30.21 in 1.8 mi East 10.4 mph - N/A   Overcast
6:35 PM 31.5 °F 22.9 °F 29.1 °F 91% 30.22 in 1.5 mi East 10.4 mph - N/A   Overcast
6:55 PM 31.5 °F 24.9 °F 29.1 °F 91% 30.24 in 1.5 mi East 6.9 mph - N/A   Overcast
7:15 PM 31.8 °F 25.4 °F 29.3 °F 90% 30.24 in 1.2 mi ENE 6.9 mph - N/A   Overcast
7:35 PM 32.0 °F 24.8 °F 30.0 °F 92% 30.23 in 1.0 mi ENE 8.1 mph - N/A   Overcast
7:55 PM 32.0 °F 24.2 °F 30.2 °F 93% 30.23 in 1.0 mi East 9.2 mph - N/A   Overcast
8:15 PM 32.2 °F 23.8 °F 30.6 °F 94% 30.23 in 1.0 mi East 10.4 mph - N/A   Overcast
8:35 PM 32.2 °F 23.8 °F 30.6 °F 94% 30.21 in 1.0 mi East 10.4 mph - N/A   Overcast
8:55 PM 32.4 °F 24.6 °F 30.6 °F 93% 30.21 in 0.8 mi East 9.2 mph 16.1 mph N/A   Overcast
9:15 PM 32.4 °F 24.6 °F 30.6 °F 93% 30.21 in 0.8 mi East 9.2 mph - N/A   Overcast
9:35 PM 32.4 °F 23.0 °F 30.6 °F 93% 30.20 in 0.8 mi East 12.7 mph - N/A   Overcast
9:56 PM 32.4 °F 24.6 °F 30.6 °F 93% 30.22 in 0.8 mi East 9.2 mph - N/A   Overcast
10:15 PM 32.4 °F 24.0 °F 30.7 °F 94% 30.21 in 0.5 mi East 10.4 mph - N/A Fog Fog
10:35 PM 32.4 °F 22.1 °F 30.7 °F 94% 30.19 in 0.5 mi ESE 15.0 mph - N/A Fog Fog
10:56 PM 32.4 °F 23.5 °F 30.7 °F 94% 30.20 in 0.5 mi East 11.5 mph 20.7 mph N/A Fog Fog
11:15 PM 32.4 °F 23.0 °F 30.7 °F 94% 30.19 in 0.8 mi East 12.7 mph 17.3 mph N/A   Overcast
11:35 PM 32.4 °F 25.3 °F 30.7 °F 94% 30.20 in 1.0 mi ESE 8.1 mph 16.1 mph N/A   Overcast